#timestamp,LO_Frequency,Hit,StdDev 
1629079215.4,286047000.4,N
1629079235.3,286046998.4,N
1629079255.1,286046999.3,N
1629079256.0,286046999.3,N
1629079275.8,286046999.1,N
1629079295.7,286046998.7,N
1629079315.5,286046998.8,N
1629079335.4,286046996.5,N
1629079355.2,286046996.6,N
1629079375.0,286046999.5,N
1629079375.9,286046999.5,N
1629079395.8,286046997.8,N
1629079415.6,286046996.9,N
1629079435.4,286046999.6,N
1629079455.3,286046998.7,N
1629079475.1,286046998.3,N
1629079495.9,286047000.0,N
1629079515.7,286047000.6,N
1629079535.5,286046999.7,N
1629079555.4,286047000.1,N
1629079575.2,286047000.2,N
1629079595.0,286047000.3,N
1629079595.9,286047000.3,N
1629079615.8,286047000.2,N
1629079635.6,286047000.0,N
1629079655.5,286047000.3,N
1629079675.3,286047000.8,N
1629079695.1,286047000.9,N
1629079715.9,286047000.0,N
1629079735.7,286047002.3,N
1629079755.6,286047001.6,N
1629079775.4,286047002.5,N
1629079795.2,286046999.7,N
1629079815.1,286046999.9,N
1629079816.0,286046999.9,N
1629079835.8,286046999.9,N
1629079855.6,286047000.1,N
1629079875.5,286046999.9,N
1629079895.3,286047002.8,N
1629079915.2,286047002.7,N
1629079935.9,286046999.7,N
1629079955.7,286047000.2,N
1629079975.6,286047000.4,N
1629079995.4,286047000.6,N
1629080015.2,286047000.1,N
1629080035.1,286046999.7,N
1629080036.0,286046999.7,N
1629080055.8,286047000.1,N
1629080075.7,286047002.7,N
1629080095.0,286047002.4,N
1629080095.9,286047002.4,N
1629080115.8,286047000.1,N
1629080135.6,286047000.9,N
1629080155.4,286047001.1,N
1629080175.3,286047001.2,N
1629080195.1,286046998.5,N
1629080215.9,286047000.8,N
1629080235.7,286046999.0,N
1629080255.5,286046998.7,N
1629080275.4,286046998.5,N
1629080295.2,286046998.8,N
1629080315.0,286046997.0,N
1629080315.9,286046997.0,N
1629080335.8,286046996.7,N
1629080355.6,286046996.6,N
1629080375.5,286046997.2,N
1629080395.3,286046997.3,N
1629080415.1,286046999.6,N
1629080435.9,286046998.7,N
1629080455.7,286046999.1,N
1629080475.6,286046998.4,N
1629080495.4,286047001.2,N
1629080515.2,286047001.0,N
1629080535.1,286047000.2,N
1629080536.0,286047000.2,N
1629080555.8,286047000.0,N
1629080575.7,286047000.8,N
1629080595.5,286047000.9,N
1629080615.3,286047000.3,N
1629080635.2,286047001.0,N
1629080655.0,286047000.5,N
1629080655.9,286047000.5,N
1629080675.7,286046998.9,N
1629080695.6,286046999.4,N
1629080715.4,286046998.5,N
1629080735.3,286046998.2,N
1629080755.1,286047000.7,N
1629080756.0,286047000.7,N
1629080775.8,286047000.3,N
1629080795.7,286047001.0,N
1629080815.5,286047000.0,N
1629080835.3,286047000.7,N
1629080855.2,286047001.0,N
1629080875.0,286047000.6,N
1629080875.9,286047000.6,N
1629080895.8,286046999.9,N
1629080915.6,286046999.8,N
1629080935.4,286047000.2,N
1629080955.3,286047000.5,N
1629080975.1,286047000.2,N
1629080995.9,286047000.3,N
1629081015.7,286047000.2,N
1629081035.5,286046999.8,N
1629081055.4,286046999.8,N
1629081075.2,286047000.1,N
1629081095.0,286047000.1,N
1629081095.9,286047000.1,N
1629081115.8,286047000.1,N
1629081135.6,286047000.3,N
1629081155.5,286047000.9,N
1629081175.3,286047000.8,N
1629081195.1,286047000.6,N
1629081215.9,286047002.8,Y
1629081235.7,286047000.5,P
1629081255.6,286047002.4,P
1629081275.4,286047002.3,N
1629081295.2,286047002.7,N
1629081315.1,286046999.8,N
1629081316.0,286046999.8,N
1629081335.8,286047002.7,N
1629081355.7,286046999.7,N
1629081375.5,286047002.8,N
1629081395.3,286047002.8,N
1629081415.2,286047002.3,N
1629081435.0,286047002.6,N
1629081435.9,286047002.6,N
1629081455.7,286047002.0,N
1629081475.6,286047002.8,N
1629081495.4,286047002.4,N
1629081515.3,286047000.1,N
1629081535.1,286046999.8,N
1629081536.0,286046999.8,N
1629081555.8,286046999.8,N
1629081575.7,286047000.1,N
1629081595.5,286047002.7,N
1629081615.4,286047002.2,N
1629081635.2,286047002.1,N
1629081655.0,286047001.6,N
1629081686.0,286047002.2,E
1629081695.9,286047002.6,N
1629081715.7,286047001.1,P
1629081735.6,286047000.7,N
1629081755.4,286047000.8,N
1629081775.2,286047000.7,N
1629081795.1,286047000.9,N
1629081796.0,286047000.9,N
1629081815.8,286046998.5,N
1629081835.6,286047002.8,N
1629081855.5,286046999.8,N
1629081875.3,286047000.5,N
1629081895.2,286046998.2,N
1629081915.9,286046998.6,N
1629081935.7,286046998.5,N
1629081955.6,286046998.6,N
1629081975.4,286046998.5,N
1629081995.3,286046998.3,N
1629082015.1,286046999.5,N
1629082016.0,286046999.5,N
1629082035.8,286046999.3,N
1629082055.7,286046996.9,N
1629082075.5,286046999.6,N
1629082095.3,286046999.1,N
1629082115.2,286046999.5,N
1629082135.0,286046999.5,N
1629082135.9,286046999.5,N
1629082155.8,286046998.6,N
1629082175.6,286046998.6,N
1629082195.4,286047001.2,N
1629082215.3,286046998.2,N
1629082235.1,286046998.6,N
1629082255.9,286046998.4,N
1629082275.7,286046998.9,N
1629082295.5,286046996.7,N
1629082315.4,286046996.9,N
1629082335.2,286046999.6,N
1629082355.0,286046998.2,N
1629082355.9,286046998.2,N
1629082375.8,286046998.2,N
1629082395.6,286046998.7,N
1629082415.5,286047001.1,N
1629082435.3,286046998.7,N
1629082455.1,286046999.3,N
1629082475.9,286046998.1,N
1629082495.7,286046998.6,N
1629082515.5,286046998.9,N
1629082535.4,286046998.2,N
1629082555.2,286046998.8,N
1629082575.1,286046998.9,N
1629082576.0,286046998.9,N
1629082595.8,286046998.6,N
1629082615.6,286046998.4,N
1629082635.5,286046998.9,N
1629082655.3,286046998.7,N
1629082675.1,286046998.2,N
1629082695.9,286046999.0,N
1629082715.7,286046998.4,N
1629082735.6,286046998.4,N
1629082755.4,286046998.5,N
1629082775.2,286046998.2,N
1629082795.1,286046998.5,N
1629082796.0,286046998.5,N
